Home > Weather > Bilbao > Past weeks

Flag for Spain Past Weather in Bilbao, Spain — Yesterday and Last 2 Weeks

Now
73 °F

Broken clouds.


Feels Like: 74 °F
Forecast: 65 / 76 °F
Wind: 13 mph from Northwest

Location: Bilbao / Sondica

Current Time: Aug 28, 2016 at 6:49:28 PM

Latest Report: Aug 28, 2016 at 6:00 PM


Visibility: N/A

Pressure: 30.21 "Hg

Humidity: 78%

Dew Point: 66 °F

Location of BilbaoLocation

Past Weather in Bilbao — Graph

°F

Bilbao Temperature Yesterday

Maximum temperature yesterday: 99 °F (at 2:00 PM)
Minimum temperature yesterday: 68 °F (at 3:30 AM)
Average temperature yesterday: 77 °F

High & Low Weather Summary for the Past Weeks

 TemperatureHumidityPressure
High104 °F (Aug 25, 4:30 PM)100% (Aug 14, 3:00 AM)30.33 "Hg (Aug 14, 3:00 AM)
Low57 °F (Aug 21, 6:00 AM)12% (Aug 25, 3:30 PM)29.80 "Hg (Aug 19, 6:00 AM)
Average73 °F75%30.05 "Hg
* Reported Aug 13 5:00 PM — Aug 28 5:30 PM, Bilbao, Weather by CustomWeather, © 2016

Note: Actual official high and low records may vary slightly from our data, if they occured in-between our weather recording intervals... More about our weather records

Advertising

Bilbao Weather History for the Previous 24 Hours

Scroll right to see more
 ConditionsComfort  
Time TempWeatherWind HumidityBarometerVisibility
5:30 PM
Sun, Aug 28
75 °FPartly sunny.14 mph69%30.21 "HgN/A
5:00 PM77 °FPartly sunny.10 mph61%30.21 "HgN/A
4:30 PM75 °FPartly sunny.12 mph65%30.21 "HgN/A
4:00 PM75 °FPartly sunny.9 mph65%30.21 "HgN/A
3:30 PM77 °FPartly sunny.7 mph57%30.21 "HgN/A
3:00 PM75 °FPartly sunny.8 mph57%30.21 "HgN/A
2:30 PM75 °FBroken clouds.8 mph65%30.21 "HgN/A
2:00 PM73 °FBroken clouds.12 mph78%30.21 "HgN/A
1:30 PM75 °FBroken clouds.8 mph74%30.21 "HgN/A
1:00 PM73 °FBroken clouds.7 mph74%30.21 "HgN/A
12:30 PM73 °FBroken clouds.7 mph74%30.21 "HgN/A
12:00 PM72 °FBroken clouds.6 mph83%30.18 "HgN/A
11:30 AM72 °FBroken clouds.5 mph83%30.18 "HgN/A
11:00 AM72 °FBroken clouds.5 mph83%30.18 "HgN/A
10:30 AM72 °FBroken clouds.3 mph83%30.18 "HgN/A
10:00 AM70 °FBroken clouds.3 mph88%30.18 "Hg6 mi
9:30 AM70 °FBroken clouds.No wind94%30.15 "Hg5 mi
9:00 AM68 °FBroken clouds.No wind94%30.15 "Hg5 mi
8:30 AM68 °FPartly cloudy.No wind94%30.15 "Hg5 mi
8:00 AM68 °FPartly cloudy.No wind94%30.15 "Hg4 mi
7:30 AM66 °FPassing clouds.No wind100%30.12 "Hg4 mi
7:00 AM68 °FPartly cloudy.No wind94%30.12 "Hg5 mi
6:30 AM68 °FPassing clouds.1 mph94%30.12 "Hg5 mi
6:00 AM68 °FPartly cloudy.No wind94%30.12 "Hg5 mi
5:30 AM68 °FPartly cloudy.No wind94%30.12 "Hg5 mi
5:00 AM68 °FPartly cloudy.No wind94%30.12 "Hg5 mi
4:30 AM68 °FPartly cloudy.1 mph94%30.12 "Hg2 mi
4:00 AM68 °FHaze.No wind94%30.12 "Hg2 mi
3:30 AM70 °FHaze.No wind94%30.12 "Hg2 mi
3:00 AM70 °FHaze.No wind94%30.12 "Hg3 mi
2:30 AM70 °FPassing clouds.1 mph94%30.15 "Hg3 mi
2:00 AM72 °FPassing clouds.No wind88%30.15 "Hg3 mi
1:30 AM72 °FPassing clouds.No wind88%30.15 "Hg2 mi
1:00 AM72 °FPassing clouds.1 mph88%30.15 "Hg2 mi
12:30 AM73 °FPassing clouds.2 mph83%30.15 "Hg2 mi
12:00 AM73 °FPassing clouds.1 mph83%30.15 "HgN/A
11:30 PM
Sat, Aug 27
73 °FPassing clouds.2 mph83%30.12 "HgN/A
11:00 PM73 °FPassing clouds.5 mph83%30.12 "HgN/A
10:30 PM73 °FPassing clouds.7 mph83%30.12 "Hg6 mi
10:00 PM73 °FPartly cloudy.9 mph83%30.12 "Hg6 mi
9:30 PM73 °FBroken clouds.9 mph83%30.12 "Hg6 mi
9:00 PM75 °FBroken clouds.10 mph78%30.09 "Hg6 mi
8:30 PM75 °FBroken clouds.10 mph78%30.09 "Hg6 mi
8:00 PM75 °FBroken clouds.9 mph78%30.07 "HgN/A
7:30 PM77 °FPartly sunny.13 mph74%30.07 "HgN/A
7:00 PM77 °FBroken clouds.13 mph74%30.07 "HgN/A
6:30 PM77 °FBroken clouds.15 mph74%30.07 "HgN/A
6:00 PM77 °FPartly sunny.15 mph79%30.04 "HgN/A
Weather by CustomWeather, © 2016

See weather overviewHow to use our weather pages